Regional Weather Roundup
Issued by NWS

Home | Current Version | Previous Version | Text Only | Print | Product List | Glossary Off
Versions: 1 2 3 4 5 6 7 8 9 10 11 12 13 14 15 16 17 18 19 20 21 22 23 24 25 26 27 28 29 30 31 32 33 34 35 36 37 38 39 40 41 42 43 44 45 46 47 48 49 50

000
ASUS43 KIND 232359
RWRIN

WEATHER ROUNDUP FOR INDIANA
NATIONAL WEATHER SERVICE INDIANAPOLIS IN
800 PM EDT TUE AUG 23 2016

NOTE: "FAIR" INDICATES FEW OR NO CLOUDS BELOW 12,000 FEET WITH NO
SIGNIFICANT WEATHER AND/OR OBSTRUCTIONS TO VISIBILITY.

* - STATION DOES NOT REPORT WEATHER SUCH AS PRECIPITATION OR FOG.

+ - STATION NOT QUALITY CONTROLLED BY THE NATIONAL WEATHER SERVICE.
    USE DATA WITH CAUTION...ESPECIALLY DEWPOINT AND RELATIVE
    HUMIDITY OBSERVATIONS.

INZ001>003-010>013-019-020-240100-
NORTHWEST INDIANA

CITY           SKY/WX    TMP DP  RH WIND       PRES   REMARKS
GARY /AIRPORT/ PTCLDY    79  61  53 S5        30.15F
KNOX *+        PTCLDY    73  37  27 S5        30.18R
MONTICELLO +   CLOUDY    75  58  55 S5        30.18S
6HR MIN TEMP:  75; 6HR MAX TEMP:  80;

RENSSELAER +   MOCLDY    73  64  73 SE3       30.18S

$$

LMZ046-743>745-240100-
SOUTHERN LAKE MICHIGAN

STATION/POSITION TIME  TEMP    WIND        PRES    WAVE
                       AIR SEA DIR/SP/G            HT
                 (UTC) (F)     (DEG/KT/KT) (MB)    (FT)
BURNS HARBOR     2300   79     180/  9/ 18 1021.7R
MICHIGAN CITY    2300   77     170/ 10/ 12   N/A
5NW MICH CITY    2300   77 73  190/ 10/ 12   N/A     1

$$

INZ004-005-014>016-021>024-240100-
NORTH CENTRAL INDIANA

CITY           SKY/WX    TMP DP  RH WIND       PRES   REMARKS
ELKHART        CLOUDY    75  59  57 S6        30.19S
GOSHEN         PTCLDY    75  60  59 S6        30.19F
6HR MIN TEMP:  74; 6HR MAX TEMP:  80;

SOUTH BEND     PTCLDY    75  61  61 S8        30.18F
6HR MIN TEMP:  75; 6HR MAX TEMP:  80;


$$

INZ006>009-017-018-025>027-240100-
NORTHEAST INDIANA

CITY           SKY/WX    TMP DP  RH WIND       PRES   REMARKS
ANGOLA *+      CLEAR     73  64  73 S3        30.21S
FORT WAYNE     MOCLDY    75  61  61 S6        30.21F
6HR MIN TEMP:  75; 6HR MAX TEMP:  81;


$$

INZ028-029-035-036-043>045-051>053-240100-
WEST CENTRAL INDIANA

CITY           SKY/WX    TMP DP  RH WIND       PRES   REMARKS
CRAWFORDSVL +  CLOUDY    70  65  84 S5        30.19F
6HR MIN TEMP:  70; 6HR MAX TEMP:  78;

GREENCASTLE +  CLOUDY    72  70  94 CALM      30.21S
LAFAYETTE      PTCLDY    74  64  71 S3        30.17F
6HR MIN TEMP:  74; 6HR MAX TEMP:  80;

TERRE HAUTE    CLOUDY    76  65  68 S5        30.18F
6HR MIN TEMP:  76; 6HR MAX TEMP:  82;


$$

INZ030>032-037>040-046>048-054>057-064-065-240100-
CENTRAL INDIANA

CITY           SKY/WX    TMP DP  RH WIND       PRES   REMARKS
COLUMBUS       CLEAR     75  66  73 SE5       30.21F
INDIANAPOLIS   CLOUDY    76  61  59 S7        30.19F
6HR MIN TEMP:  76; 6HR MAX TEMP:  81;

-EAGLE CREEK   CLOUDY    77  61  57 S3        30.20S
6HR MIN TEMP:  77; 6HR MAX TEMP:  81;

KOKOMO *+      CLOUDY    72  61  68 S6        30.20S
6HR MIN TEMP:  72; 6HR MAX TEMP:  81;

MT COMFORT *+  CLOUDY    72  64  78 SE3       30.22S
SHELBYVILLE    CLOUDY    75  64  68 S3        30.21S
6HR MIN TEMP:  75; 6HR MAX TEMP:  81;


$$

INZ033-034-041-042-049-050-058-059-240100-
EAST CENTRAL INDIANA

CITY           SKY/WX    TMP DP  RH WIND       PRES   REMARKS
MUNCIE         CLOUDY    76  60  57 S6        30.22S
6HR MIN TEMP:  76; 6HR MAX TEMP:  81;


$$

INZ060-061-067>069-081>083-085>088-240100-
SOUTHWEST INDIANA

CITY           SKY/WX    TMP DP  RH WIND       PRES   REMARKS
EVANSVILLE     CLOUDY    79  66  64 SE3       30.18F
6HR MIN TEMP:  79; 6HR MAX TEMP:  82;

HUNTINGBURG *+ CLOUDY    75  66  73 CALM      30.19S
6HR MIN TEMP:  75; 6HR MAX TEMP:  82;


$$

INZ062-063-066-070>080-084-089>092-240100-
SOUTH CENTRAL AND SOUTHEAST INDIANA

CITY           SKY/WX    TMP DP  RH WIND       PRES   REMARKS
BLOOMINGTON    PTCLDY    73  67  81 CALM      30.20F
6HR MIN TEMP:  73; 6HR MAX TEMP:  82;

MADISON *+     CLOUDY    73  64  73 CALM      30.23S

$$





USA.gov is the U.S. government's official web portal to all federal, state and local government web resources and services.